Location: Castro Valley
(37.6940°N, 122.0850°W)
Time: 22:31:50
(UTC-07:00)

Amateur Radio Satellites - All Passes

Search period start: 25 March 2017 22:01
Search period end: 26 March 2017 22:01
Location: Castro Valley, 37.6940°N, 122.0850°W

Satellite Date Start Highest point End Downlink Frequencies (MHz)
Time Altitude Azimuth
UWE-3 25 Mar 22:13:52 22:15:31 12° 269° (W) 22:17:10 435.000/436.395/437.385
ISS 25 Mar 22:14:23 22:17:21 31° 328° (NNW) 22:20:19 437.550
Tancredo 1 25 Mar 22:18:28 22:21:09 25° 329° (NNW) 22:23:53 437.200
FO-29 25 Mar 22:25:10 22:28:05 14° 88° (E) 22:30:53 435.910
PRISM 25 Mar 22:26:48 22:30:48 45° 100° (E) 22:34:47 437.425
DELFI C3 25 Mar 22:42:30 22:45:58 30° 263° (W) 22:49:29 145.870
TIGRISAT 25 Mar 22:50:35 22:54:42 38° 98° (E) 22:58:42 435.000
LO-87 25 Mar 22:57:17 23:00:34 35° 73° (ENE) 23:03:54 145.935 - 145.965
UNISAT 6 25 Mar 23:00:22 23:04:42 54° 100° (E) 23:08:55 437.425
SO-50 25 Mar 23:12:41 23:15:22 15° 44° (NE) 23:18:02 436.795
BEESAT 3 25 Mar 23:12:58 23:16:52 83° 300° (WNW) 23:20:51 437.485
ESTCUBE 1 25 Mar 23:23:02 23:27:13 41° 72° (ENE) 23:31:26 437.505/2401.250
BEESAT 2 25 Mar 23:26:55 23:30:44 50° 116° (ESE) 23:34:37 435.950
RS-15 25 Mar 23:36:36 23:48:25 59° 249° (WSW) 23:59:40 29.354- 29.394
EO-79 25 Mar 23:42:49 23:43:26 10° 91° (E) 23:44:04 145.935-145.965
AIST 2D 25 Mar 23:43:11 23:45:35 17° 94° (E) 23:47:59 435.315
SPROUT 25 Mar 23:53:27 23:56:46 22° 69° (ENE) 00:00:06 437.525
50 SAT 25 Mar 23:58:49 00:00:44 14° 68° (ENE) 00:02:39 437.505
PRISM 26 Mar 00:03:31 00:05:39 14° 295° (WNW) 00:07:48 437.425
FO-29 26 Mar 00:07:56 00:13:54 65° 287° (WNW) 00:19:13 435.910
POLYITAN 1 26 Mar 00:08:19 00:11:38 22° 95° (E) 00:14:54 437.675
QB50P2 26 Mar 00:12:39 00:16:16 27° 96° (E) 00:19:50 145.880/145.840
DX 1 26 Mar 00:19:15 00:22:30 21° 67° (ENE) 00:25:45 434.975-435.025
DUCHIFAT 1 26 Mar 00:25:55 00:29:35 29° 97° (E) 00:33:12 145.980
TIGRISAT 26 Mar 00:28:09 00:31:03 17° 294° (WNW) 00:33:55 435.000
LO-87 26 Mar 00:32:49 00:34:09 12° 268° (W) 00:35:31 145.935 - 145.965
VELOX 1 26 Mar 00:38:29 00:42:53 87° 73° (ENE) 00:47:19 145.980
UNISAT 6 26 Mar 00:38:56 00:40:52 13° 296° (WNW) 00:42:48 437.425
BUGSAT 1 26 Mar 00:45:57 00:48:25 15° 93° (E) 00:50:50 437.445
SO-50 26 Mar 00:51:48 00:56:15 64° 242° (WSW) 01:00:41 436.795
UKube-1 26 Mar 00:59:51 01:03:53 41° 72° (ENE) 01:07:56 .
ESTCUBE 1 26 Mar 01:01:24 01:04:11 16° 267° (W) 01:06:59 437.505/2401.250
BEESAT 2 26 Mar 01:06:28 01:08:48 15° 314° (NW) 01:11:07 435.950
NANOSAT C BR1 26 Mar 01:11:12 01:15:24 71° 284° (WNW) 01:19:34 145.865
EO-79 26 Mar 01:15:22 01:19:32 57° 286° (WNW) 01:23:39 145.935-145.965
AIST 2D 26 Mar 01:16:01 01:18:45 22° 289° (WNW) 01:21:29 435.315
Oscar 19 26 Mar 01:25:28 01:28:13 14° 92° (E) 01:30:57 437.125/150
SPROUT 26 Mar 01:28:46 01:32:29 28° 263° (W) 01:36:15 437.525
50 SAT 26 Mar 01:30:33 01:33:31 27° 263° (W) 01:36:31 437.505
POLYITAN 1 26 Mar 01:43:47 01:47:21 27° 290° (WNW) 01:50:54 437.675
QB50P2 26 Mar 01:48:35 01:51:54 23° 291° (WNW) 01:55:12 145.880/145.840
DX 1 26 Mar 01:54:36 01:58:27 31° 263° (W) 02:02:21 434.975-435.025
DUCHIFAT 1 26 Mar 02:01:53 02:05:03 21° 292° (WNW) 02:08:13 145.980
BUGSAT 1 26 Mar 02:20:02 02:23:54 38° 288° (WNW) 02:27:43 437.445
BEESAT 26 Mar 02:26:25 02:30:25 27° 68° (ENE) 02:34:25 436.000
UKube-1 26 Mar 02:37:31 02:40:04 15° 267° (W) 02:42:37 .
ITUPSAT 1 26 Mar 02:41:44 02:46:08 38° 71° (ENE) 02:50:34 437.325
MOZHAYETS 4 26 Mar 02:49:49 02:52:54 18° 66° (ENE) 02:56:00
AO-7 26 Mar 03:02:08 03:05:15 12° 89° (E) 03:08:22 .
Oscar 19 26 Mar 03:02:48 03:07:53 61° 287° (WNW) 03:12:59 437.125/150
ISS 26 Mar 03:07:28 03:10:00 20° 27° (NNE) 03:12:33 437.550
Tancredo 1 26 Mar 03:10:13 03:12:48 22° 29° (NNE) 03:15:23 437.200
ITAMSAT 1 26 Mar 03:11:26 03:13:44 13° 91° (E) 03:16:01 435.822/435.867
Gurwin Techsat 1B 26 Mar 03:12:11 03:17:32 89° 284° (WNW) 03:22:52 435.225
O/OREOS (USA 219) 26 Mar 03:32:28 03:37:07 78° 70° (ENE) 03:41:42 437.305
BEESAT 26 Mar 04:03:58 04:08:04 28° 263° (W) 04:12:12 436.000
KKS-1 26 Mar 04:11:00 04:14:49 28° 69° (ENE) 04:18:39 437.445
ITUPSAT 1 26 Mar 04:20:32 04:24:03 20° 266° (W) 04:27:35 437.325
MOZHAYETS 4 26 Mar 04:25:23 04:29:43 41° 262° (W) 04:34:04
ISS 26 Mar 04:43:26 04:46:39 50° 224° (SW) 04:49:51 437.550
Tancredo 1 26 Mar 04:46:00 04:49:01 39° 225° (SW) 04:52:02 437.200
ITAMSAT 1 26 Mar 04:48:28 04:53:38 67° 286° (WNW) 04:58:45 435.822/435.867
STARS 26 Mar 04:48:33 04:52:27 31° 70° (ENE) 04:56:23 437.465
AO-7 26 Mar 04:50:49 04:59:09 77° 106° (ESE) 05:07:27 .
Gurwin Techsat 1B 26 Mar 04:55:20 04:56:39 11° 300° (WNW) 04:57:58 435.225
CUBESAT XI-V 26 Mar 05:15:49 05:20:24 77° 257° (WSW) 05:25:01 437.345
M-CUBED/EXP-1 PRIME 26 Mar 05:21:56 05:23:37 13° 59° (ENE) 05:25:21 437.505
KKS-1 26 Mar 05:47:44 05:51:19 24° 264° (W) 05:54:57 437.445
DOVE 4 26 Mar 06:08:15 06:12:10 21° 92° (E) 06:16:00 437.250
STARS 26 Mar 06:25:27 06:28:48 21° 265° (W) 06:32:11 437.465
NO-84 26 Mar 06:28:20 06:30:22 17° 127° (SE) 06:32:21 435.350 FM
AO-85 26 Mar 06:33:08 06:37:05 74° 60° (ENE) 06:41:09 145.980
CUTE-I 26 Mar 06:35:22 06:39:36 23° 95° (E) 06:43:48 437.470
AO-7 26 Mar 06:44:58 06:51:04 23° 304° (NW) 06:57:09 .
XW-2F 26 Mar 06:53:05 06:56:30 34° 98° (E) 06:59:54 145.980 - 146.000
LilacSat-2 26 Mar 06:53:36 06:57:08 38° 98° (E) 07:00:39 437.200
M-CUBED/EXP-1 PRIME 26 Mar 06:54:07 06:57:34 44° 257° (WSW) 07:01:19 437.505
XW-2D 26 Mar 07:18:31 07:22:16 84° 102° (ESE) 07:26:00 145.860 - 145.880
NUDT-PHONESAT 26 Mar 07:19:33 07:23:13 64° 100° (E) 07:26:51 437.300
HO-68 26 Mar 07:20:57 07:25:14 17° 91° (E) 07:29:30 435.675
XW-2B 26 Mar 07:24:26 07:28:12 84° 284° (WNW) 07:31:56 145.730 - 145.750
KAITUO 1B 26 Mar 07:26:18 07:30:00 81° 102° (ESE) 07:33:41 145.475/437.950
BEESAT 3 26 Mar 07:31:41 07:35:16 30° 53° (NE) 07:38:50 437.485
STRAND 1 26 Mar 07:34:28 07:39:34 69° 74° (ENE) 07:44:42 437.568
XW-2C 26 Mar 07:34:39 07:38:21 59° 284° (WNW) 07:42:02 145.795 - 145.815
XW-2A 26 Mar 07:38:57 07:40:54 14° 94° (E) 07:42:49 145.665 - 145.685
DOVE 4 26 Mar 07:44:57 07:50:00 45° 288° (WNW) 07:54:57 437.250
CUTE 1.7 + AOD 2 26 Mar 07:45:06 07:47:53 17° 93° (E) 07:50:39 437.475
BEESAT 2 26 Mar 07:46:51 07:49:48 19° 49° (NE) 07:52:43 435.950
YUBILEINY 26 Mar 08:04:08 08:12:44 65° 92° (E) 08:21:19 435.215
NO-84 26 Mar 08:05:18 08:07:44 25° 322° (NW) 08:10:10 435.350 FM
CUTE-I 26 Mar 08:14:46 08:19:45 40° 290° (WNW) 08:24:40 437.470
UWE-3 26 Mar 08:27:36 08:29:40 13° 91° (E) 08:31:43 435.000/436.395/437.385
XW-2F 26 Mar 08:28:22 08:30:19 14° 292° (WNW) 08:32:17 145.980 - 146.000
LilacSat-2 26 Mar 08:29:19 08:31:03 13° 293° (WNW) 08:32:47 437.200
CUBEBUG 2 26 Mar 08:58:48 09:03:07 54° 99° (E) 09:07:16 437.445
AAUSAT CUBESAT 2 26 Mar 08:58:58 09:02:50 37° 98° (E) 09:06:42 437.432
Oscar 11 26 Mar 09:01:56 09:04:22 15° 92° (E) 09:06:48 .
HO-68 26 Mar 09:06:26 09:13:37 80° 287° (WNW) 09:20:46 435.675
ZACube-1 26 Mar 09:08:04 09:11:22 22° 95° (E) 09:14:37 437.345
BEESAT 3 26 Mar 09:09:39 09:12:41 21° 249° (WSW) 09:15:41 437.485
XW-2A 26 Mar 09:10:52 09:13:39 24° 288° (WNW) 09:16:25 145.665 - 145.685
SEEDS 26 Mar 09:13:24 09:17:34 65° 284° (WNW) 09:21:42 437.485
PRISM 26 Mar 09:14:34 09:17:53 25° 69° (ENE) 09:21:14 437.425
PCSat 26 Mar 09:16:11 09:20:32 25° 107° (ESE) 09:24:53 145.827
STRAND 1 26 Mar 09:17:06 09:19:11 12° 269° (W) 09:21:17 437.568
CUTE 1.7 + AOD 2 26 Mar 09:19:57 09:23:47 34° 288° (WNW) 09:27:37 437.475
BEESAT 2 26 Mar 09:23:55 09:27:41 38° 246° (WSW) 09:31:26 435.950
AO-73 26 Mar 09:36:07 09:40:07 42° 98° (E) 09:44:03 145.935
TIGRISAT 26 Mar 09:47:05 09:51:07 29° 70° (ENE) 09:55:07 435.000
UNISAT 6 26 Mar 09:56:47 10:01:08 39° 72° (ENE) 10:05:29 437.425
UWE-3 26 Mar 10:02:17 10:06:23 44° 287° (WNW) 10:10:22 435.000/436.395/437.385
YUBILEINY 26 Mar 10:03:12 10:10:06 26° 291° (WNW) 10:17:04 435.215
JUGNU 26 Mar 10:03:56 10:06:36 13° 179° (S) 10:09:16 437.505
FO-29 26 Mar 10:15:18 10:22:45 49° 70° (ENE) 10:29:48 435.910
DELFI C3 26 Mar 10:20:57 10:24:37 34° 98° (E) 10:28:15 145.870
AAUSAT CUBESAT 2 26 Mar 10:35:25 10:37:58 16° 293° (WNW) 10:40:32 437.432
Oscar 11 26 Mar 10:36:37 10:40:40 41° 287° (WNW) 10:44:43 .
CUBEBUG 2 26 Mar 10:37:19 10:39:11 13° 296° (WNW) 10:41:03 437.445
ZACube-1 26 Mar 10:44:05 10:47:36 26° 290° (WNW) 10:51:04 437.345
PRISM 26 Mar 10:49:53 10:53:06 22° 264° (W) 10:56:20 437.425
HO-68 26 Mar 10:56:42 11:00:13 14° 305° (NW) 11:03:43 435.675
PCSat 26 Mar 10:58:34 11:03:39 41° 304° (WNW) 11:08:47 145.827
POLYITAN 1 26 Mar 11:00:01 11:02:18 14° 66° (ENE) 11:04:36 437.675
QB50P2 26 Mar 11:04:04 11:06:51 17° 67° (ENE) 11:09:39 145.880/145.840
AO-73 26 Mar 11:13:42 11:15:57 14° 294° (WNW) 11:18:11 145.935
DUCHIFAT 1 26 Mar 11:16:28 11:19:19 18° 67° (ENE) 11:22:11 145.980
TIGRISAT 26 Mar 11:23:47 11:27:42 26° 265° (W) 11:31:37 435.000
UNISAT 6 26 Mar 11:34:38 11:37:56 19° 266° (W) 11:41:15 437.425
RS-15 26 Mar 11:46:15 11:55:48 30° 102° (ESE) 12:05:35 29.354- 29.394
AIST 2D 26 Mar 11:47:30 11:51:03 89° 264° (W) 11:54:36 435.315
JUGNU 26 Mar 11:53:24 11:54:44 11° 190° (S) 11:56:04 437.505
DELFI C3 26 Mar 11:56:37 11:59:06 16° 292° (WNW) 12:01:34 145.870
LO-87 26 Mar 11:59:05 12:02:42 60° 100° (E) 12:06:17 145.935 - 145.965
NANOSAT C BR1 26 Mar 12:00:50 12:05:03 64° 75° (ENE) 12:09:16 145.865
FO-29 26 Mar 12:00:51 12:07:46 34° 264° (W) 12:14:26 435.910
EO-79 26 Mar 12:05:15 12:09:30 80° 78° (ENE) 12:13:49 145.935-145.965
SRMSAT 26 Mar 12:06:34 12:09:14 13° 176° (S) 12:11:53 437.500
VELOX 1 26 Mar 12:31:13 12:34:22 19° 94° (E) 12:37:32 145.980
POLYITAN 1 26 Mar 12:33:32 12:37:40 46° 261° (W) 12:41:49 437.675
QB50P2 26 Mar 12:38:20 12:42:19 38° 262° (W) 12:46:19 145.880/145.840
Oscar 19 26 Mar 12:40:28 12:43:54 19° 64° (ENE) 12:47:21 437.125/150
DUCHIFAT 1 26 Mar 12:50:47 12:54:41 35° 262° (W) 12:58:37 145.980
ESTCUBE 1 26 Mar 12:53:32 12:58:01 68° 285° (WNW) 13:02:29 437.505/2401.250
Gurwin Techsat 1B 26 Mar 12:54:30 12:57:21 15° 62° (ENE) 13:00:13 435.225
50 SAT 26 Mar 12:56:40 12:59:15 19° 95° (E) 13:01:50 437.505
BUGSAT 1 26 Mar 13:06:55 13:11:07 74° 258° (WSW) 13:15:23 437.445
SPROUT 26 Mar 13:15:37 13:19:49 53° 100° (E) 13:23:59 437.525
DX 1 26 Mar 13:43:56 13:48:13 48° 100° (E) 13:52:27 434.975-435.025
RS-15 26 Mar 13:55:06 14:07:04 75° 303° (WNW) 14:19:31 29.354- 29.394
SRMSAT 26 Mar 13:55:12 13:57:32 12° 187° (S) 13:59:52 437.500
AO-7 26 Mar 13:58:47 14:04:05 19° 53° (NE) 14:09:22 .
VELOX 1 26 Mar 14:06:50 14:10:54 35° 289° (WNW) 14:14:58 145.980
Oscar 19 26 Mar 14:17:52 14:22:48 50° 260° (W) 14:27:47 437.125/150
UKube-1 26 Mar 14:24:08 14:28:29 82° 282° (WNW) 14:32:48 .
ITAMSAT 1 26 Mar 14:27:08 14:30:38 18° 64° (ENE) 14:34:08 435.822/435.867
50 SAT 26 Mar 14:29:32 14:32:12 21° 290° (WNW) 14:34:52 437.505
Gurwin Techsat 1B 26 Mar 14:31:23 14:36:40 68° 258° (WSW) 14:41:59 435.225
NO-84 26 Mar 14:39:24 14:42:37 63° 44° (NE) 14:46:08 435.350 FM
ITUPSAT 1 26 Mar 14:46:41 14:47:45 11° 91° (E) 14:48:48 437.325
SPROUT 26 Mar 14:53:21 14:55:14 13° 295° (WNW) 14:57:07 437.525
SO-50 26 Mar 15:03:43 15:08:20 64° 118° (ESE) 15:12:54 436.795
DX 1 26 Mar 15:21:34 15:23:57 14° 295° (WNW) 15:26:19 434.975-435.025
AO-7 26 Mar 15:47:21 15:55:42 87° 71° (ENE) 16:04:03 .
ITAMSAT 1 26 Mar 16:04:34 16:09:39 53° 259° (W) 16:14:46 435.822/435.867
BEESAT 26 Mar 16:04:58 16:09:45 82° 103° (ESE) 16:14:29 436.000
O/OREOS (USA 219) 26 Mar 16:07:15 16:08:24 11° 97° (E) 16:09:34 437.305
RS-15 26 Mar 16:12:22 16:22:08 27° 330° (NNW) 16:32:04 29.354- 29.394
NO-84 26 Mar 16:19:12 16:19:53 10° 236° (SW) 16:20:36 435.350 FM
ITUPSAT 1 26 Mar 16:21:16 16:26:01 69° 285° (WNW) 16:30:43 437.325
MOZHAYETS 4 26 Mar 16:21:52 16:26:19 51° 100° (E) 16:30:44
SO-50 26 Mar 16:46:18 16:49:12 16° 315° (NW) 16:52:05 436.795
DOVE 4 26 Mar 17:12:37 17:15:23 16° 64° (ENE) 17:18:13 437.250
CUBESAT XI-V 26 Mar 17:14:24 17:18:29 30° 96° (E) 17:22:33 437.345
XW-2F 26 Mar 17:33:34 17:35:30 14° 67° (ENE) 17:37:26 145.980 - 146.000
LilacSat-2 26 Mar 17:34:42 17:37:01 16° 68° (ENE) 17:39:19 437.200
KKS-1 26 Mar 17:39:19 17:43:49 74° 102° (ESE) 17:48:16 437.445
O/OREOS (USA 219) 26 Mar 17:42:43 17:47:11 61° 293° (WNW) 17:51:43 437.305
AO-7 26 Mar 17:44:15 17:49:19 17° 268° (W) 17:54:23 .
BEESAT 26 Mar 17:46:23 17:46:48 10° 299° (WNW) 17:47:13 436.000
HO-68 26 Mar 17:51:26 17:53:09 11° 52° (NE) 17:54:52 435.675
CUTE-I 26 Mar 17:55:09 17:59:53 33° 68° (ENE) 18:04:38 437.470
NUDT-PHONESAT 26 Mar 17:57:34 18:00:29 22° 70° (ENE) 18:03:24 437.300
XW-2D 26 Mar 17:58:01 18:01:20 29° 72° (ENE) 18:04:38 145.860 - 145.880
MOZHAYETS 4 26 Mar 18:00:32 18:03:01 15° 295° (WNW) 18:05:30
XW-2B 26 Mar 18:03:49 18:07:15 33° 73° (ENE) 18:10:41 145.730 - 145.750
KAITUO 1B 26 Mar 18:04:43 18:07:54 27° 71° (ENE) 18:11:05 145.475/437.950
PCSat 26 Mar 18:05:54 18:09:16 16° 46° (NE) 18:12:36 145.827
XW-2C 26 Mar 18:13:46 18:17:24 45° 74° (ENE) 18:21:03 145.795 - 145.815
STARS 26 Mar 18:15:13 18:19:39 80° 100° (E) 18:24:04 437.465
YUBILEINY 26 Mar 18:17:15 18:24:29 28° 70° (ENE) 18:31:41 435.215
RS-15 26 Mar 18:33:22 18:41:01 18° 6° (N) 18:48:36 29.354- 29.394
M-CUBED/EXP-1 PRIME 26 Mar 18:34:59 18:37:48 16° 97° (E) 18:40:35 437.505
CUTE 1.7 + AOD 2 26 Mar 18:38:41 18:38:54 10° 64° (ENE) 18:39:07 437.475
DOVE 4 26 Mar 18:47:59 18:52:29 53° 261° (W) 18:57:20 437.250
CUBESAT XI-V 26 Mar 18:51:56 18:55:42 25° 291° (WNW) 18:59:28 437.345
XW-2F 26 Mar 19:05:47 19:09:18 36° 262° (W) 19:12:50 145.980 - 146.000
LilacSat-2 26 Mar 19:07:34 19:11:01 32° 263° (W) 19:14:28 437.200
KKS-1 26 Mar 19:19:06 19:19:42 10° 298° (WNW) 19:20:20 437.445
UWE-3 26 Mar 19:24:01 19:25:04 11° 63° (ENE) 19:26:07 435.000/436.395/437.385
NUDT-PHONESAT 26 Mar 19:31:25 19:34:18 21° 265° (W) 19:37:12 437.300
HO-68 26 Mar 19:32:27 19:39:29 64° 70° (ENE) 19:46:33 435.675
XW-2D 26 Mar 19:33:05 19:35:32 16° 266° (W) 19:38:00 145.860 - 145.880
CUTE-I 26 Mar 19:35:16 19:39:52 29° 264° (W) 19:44:31 437.470
XW-2B 26 Mar 19:39:24 19:41:31 14° 267° (W) 19:43:39 145.730 - 145.750
KAITUO 1B 26 Mar 19:39:24 19:41:54 17° 266° (W) 19:44:25 145.475/437.950
XW-2A 26 Mar 19:39:27 19:42:52 71° 77° (ENE) 19:46:19 145.665 - 145.685
Tancredo 1 26 Mar 19:46:25 19:47:58 13° 128° (SE) 19:49:31 437.200
STRAND 1 26 Mar 19:47:25 19:51:43 27° 96° (E) 19:55:58 437.568
ISS 26 Mar 19:47:29 19:48:49 12° 128° (SE) 19:50:10 437.550
PCSat 26 Mar 19:47:50 19:53:17 78° 244° (WSW) 19:58:40 145.827
AAUSAT CUBESAT 2 26 Mar 19:47:52 19:50:49 20° 69° (ENE) 19:53:48 437.432
XW-2C 26 Mar 19:51:05 19:51:49 10° 268° (W) 19:52:34 145.795 - 145.815
CUBEBUG 2 26 Mar 19:54:19 19:58:42 38° 72° (ENE) 20:03:04 437.445
ZACube-1 26 Mar 20:02:27 20:05:14 16° 67° (ENE) 20:08:01 437.345
SEEDS 26 Mar 20:02:45 20:06:51 64° 76° (ENE) 20:10:59 437.485
M-CUBED/EXP-1 PRIME 26 Mar 20:07:53 20:12:24 51° 292° (WNW) 20:16:55 437.505
CUTE 1.7 + AOD 2 26 Mar 20:09:59 20:14:09 65° 259° (W) 20:18:20 437.475
YUBILEINY 26 Mar 20:13:16 20:21:43 58° 269° (W) 20:30:11 435.215
AO-73 26 Mar 20:29:29 20:33:21 28° 70° (ENE) 20:37:10 145.935
AO-85 26 Mar 20:45:39 20:49:49 38° 116° (ESE) 20:53:45 145.980
RS-15 26 Mar 20:47:49 20:58:54 36° 40° (NE) 21:09:33 29.354- 29.394
UWE-3 26 Mar 20:56:13 21:00:52 75° 258° (WSW) 21:05:31 435.000/436.395/437.385
DELFI C3 26 Mar 21:05:40 21:08:02 16° 68° (ENE) 21:10:25 145.870
Tancredo 1 26 Mar 21:20:42 21:23:46 50° 324° (NW) 21:26:52 437.200
ISS 26 Mar 21:21:42 21:24:54 58° 323° (NW) 21:28:09 437.550
HO-68 26 Mar 21:22:23 21:27:38 22° 267° (W) 21:32:55 435.675
AAUSAT CUBESAT 2 26 Mar 21:22:31 21:26:04 29° 263° (W) 21:29:40 437.432
STRAND 1 26 Mar 21:26:20 21:30:51 32° 291° (WNW) 21:35:20 437.568
Oscar 11 26 Mar 21:28:50 21:33:08 72° 259° (WSW) 21:37:26 .
CUBEBUG 2 26 Mar 21:31:51 21:35:22 20° 266° (W) 21:38:53 437.445
ZACube-1 26 Mar 21:36:46 21:41:08 45° 261° (W) 21:45:28 437.345
